[[{"header":{"parameterUnit":"m.s-1","parameterCategory":1,"la1":30.2991,"la2":30.254,"lo1":-89.0895,"lo2":-89.0444,"dy":0.0017,"dx":0.0017,"nx":28,"ny":28,"refTime":"2024-09-04T03:00:00:Z","depth":0,"parameterNumber":2,"parameterNumberName":"U-component_of_WINDS"},"data":[0,0,0,0,0,0,0,0,0,0,0,0,0,0,0,0,0,0,0,0,0,0,0,0,0,0,0,0,0,0,0,0,0,0,0,0,0,0,0,0,0,0,0,0,0,0,0,0,0,0,0,0,0,0,0,0,0,0,-6.9872,-6.9871,0,-6.9807,-6.9807,-6.9806,-6.9553,-6.9547,-6.9541,-6.9535,-6.9477,-6.948,-6.9484,0,0,0,0,0,0,0,0,0,0,0,0,0,-6.9783,-6.9786,-6.9872,-6.9871,-6.987,-6.9807,-6.9807,-6.9806,-6.9554,-6.9547,-6.9539,-6.9533,-6.9475,-6.948,-6.9485,0,0,0,0,0,0,0,0,0,0,0,0,0,-6.9781,-6.9787,-6.9872,-6.9737,-6.9724,-6.9808,-6.9806,-6.9805,-6.9555,-6.9546,-6.9538,-6.9529,-6.9474,-6.9479,-6.9485,-6.9696,0,0,-6.9503,-6.9505,0,0,0,0,0,0,0,0,-6.9781,-6.9784,-6.9757,-6.9746,-6.9732,-6.9679,-6.9753,-6.9769,-6.9557,-6.962,-6.9535,-6.9525,-6.9552,-6.955,-6.9558,-6.9694,-6.9691,-6.9503,-6.9507,-6.9509,-6.9511,0,0,0,0,0,0,0,-6.9781,-6.9785,-6.9846,-6.9757,-6.9742,-6.9681,-6.9671,-6.9755,-6.9636,-6.9613,-6.9595,-6.959,-6.9543,-6.9553,-6.9554,-6.969,-6.9503,-6.9508,-6.9512,-6.9514,-6.9995,-7.0004,0,0,0,0,0,0,-6.98,-6.9787,-6.9848,-6.9844,-6.9735,-6.969,-6.9679,-6.9705,-6.9634,-6.9615,-6.9598,-6.9579,-6.9547,-6.9548,-6.9551,-6.9792,-6.9509,-6.9515,-6.9518,-6.9986,-6.9997,-7.0007,0,0,0,0,0,0,-6.9799,-6.9808,-6.9851,-6.9811,-6.9811,-6.9701,-6.9732,-6.9708,-6.9717,-6.9622,-6.96,-6.9629,-6.954,-6.9543,-6.9661,-6.9787,-6.9518,-6.9523,-6.9975,-6.9989,-7.0002,-7.0278,0,0,0,0,0,0,-6.9797,-6.9809,-6.9887,-6.9814,-6.9815,-6.9961,-6.974,-6.9713,-6.9727,-6.9702,-6.9646,-6.9628,-6.9534,-6.9654,-6.9667,-6.979,-6.9527,-6.9963,-6.9981,-6.9997,-7.0257,-7.0299,-7.0336,0,0,0,0,0,-6.9795,-6.9969,-6.9892,-6.9901,-6.9909,-6.9969,-6.9969,-6.9855,-6.9739,-6.9817,-6.9755,-6.963,-6.9772,-6.9668,-6.9681,-6.9808,-6.9954,-6.9976,-6.9996,-7.0239,-7.0291,-7.0335,0,0,0,0,0,0,-7.0062,-6.9957,-6.9871,-7.0026,-7.0008,-6.9926,-7.0021,-6.9913,-6.993,-6.9906,-6.9765,-6.9755,-6.9893,-6.9862,-6.9749,-7.0007,-6.9842,-6.9866,-7.0022,-7.0071,-7.011,-7.0114,-6.9532,0,0,0,0,0,-7.0139,-7.0194,-7.01,-7.0246,-7.0241,-7.0134,-7.0155,-7.0068,-7.0045,-7.0037,-6.9983,-6.9968,-7.0008,-7.0038,-7.007,-7.0252,-7.0236,-7.0345,-7.0384,-7.0417,-7.044,-7.0533,-7.058,-7.0075,-7.0075,-7.0075,0,0,-7.0299,-7.0248,-7.0292,-7.0298,-7.0274,-7.0336,-7.0129,-7.0203,-7.0248,-7.0049,-7.0155,-7.0117,-7.009,-7.0241,-7.0304,-7.0219,-7.0576,-7.0444,-7.0471,-7.0475,-7.0559,-7.0607,-7.0649,-7.009,-7.0087,-7.0085,0,0,-7.062,-7.0588,-7.0704,-7.0684,-7.0648,-7.0575,-7.0604,-7.0538,-7.0504,-7.0608,-7.046,-7.0512,-7.0585,-7.0571,-7.0574,-7.089,-7.0776,-7.0905,-7.111,-7.1203,-7.1242,-7.1277,-7.1389,-7.143,-7.0928,-7.0929,-7.0929,0,-7.0823,-7.0907,-7.0779,-7.0862,-7.0869,-7.0689,-7.0807,-7.0794,-7.0774,-7.0784,-7.0688,-7.0774,-7.0744,-7.0888,-7.0965,-7.0973,-7.1002,-7.091,-7.1246,-7.128,-7.131,-7.1415,-7.1458,-7.0944,-7.0943,-7.0941,-7.0939,0,-7.1159,-7.122,-7.1319,-7.1299,-7.1318,-7.1419,-7.1307,-7.1342,-7.1254,-7.1192,-7.1301,-7.1258,-7.1277,-7.1305,-7.1221,-7.1438,-7.1385,-7.1271,-7.1101,-7.1376,-7.1472,-7.1512,-7.0967,-7.0961,-7.0957,-7.0953,0,0,-7.1647,-7.1553,-7.1592,-7.158,-7.1527,-7.1573,-7.1666,-7.1682,-7.1715,-7.1707,-7.1781,-7.1847,-7.1739,-7.1743,-7.1656,-7.1737,-7.1988,-7.1611,-7.1608,-7.1682,-7.2224,-7.231,-7.2359,-7.1913,-7.192,-7.1925,-7.2226,0,-7.1952,-7.2102,-7.1988,-7.2159,-7.2214,-7.2043,-7.2124,-7.2102,-7.2047,-7.2087,-7.2026,-7.2074,-7.1929,-7.193,-7.2003,-7.1943,-7.2095,-7.1919,-7.1982,-7.1985,-7.1992,-7.2409,-7.25,-7.2785,-7.2263,-7.2269,-7.2274,0,-7.2328,-7.2332,-7.2508,-7.2442,-7.2461,-7.2535,-7.254,-7.258,-7.2552,-7.2506,-7.251,-7.2401,-7.2489,-7.2323,-7.2443,-7.2326,-7.2345,-7.232,-7.2328,-7.2329,-7.2146,-7.242,-7.2874,-7.2917,-7.2332,-7.2327,-7.2323,0,-7.2665,-7.2715,-7.2826,-7.2821,-7.2748,-7.2804,-7.2777,-7.2739,-7.2756,-7.2762,-7.2771,-7.2789,-7.2799,-7.2816,-7.2715,-7.2604,-7.2848,-7.2674,-7.2813,-7.2816,-7.2871,-7.2869,-7.3334,-7.2887,-7.2886,-7.2885,-7.2884,0,-7.3016,-7.313,-7.2976,-7.3044,-7.3167,-7.3036,-7.3163,-7.3117,-7.3086,-7.3144,-7.2999,-7.3057,-7.2921,-7.2966,-7.2888,-7.2999,-7.3005,-7.2971,-7.2949,-7.2983,-7.2988,-7.2993,-7.297,-7.2897,-7.2894,-7.2892,-7.289,0,-7.3413,-7.3314,-7.3423,-7.3344,-7.3326,-7.3421,-7.3353,-7.3414,-7.3348,-7.3424,-7.3434,-7.3332,-7.3377,-7.3278,-7.3311,-7.3258,-7.3415,-7.3363,-7.3424,-7.3408,-7.3552,-7.3539,-7.4035,-7.4093,-7.3611,-7.3616,-7.362,0,-7.3643,-7.3726,-7.3654,-7.3681,-7.366,-7.3706,-7.3721,-7.3597,-7.3619,-7.3592,-7.3657,-7.3689,-7.3708,-7.3788,-7.3719,-7.3743,-7.3688,-7.3861,-7.3691,-7.3723,-7.3689,-7.3685,-7.3693,-7.3896,-7.3902,-7.3906,-7.391,0,-7.4062,-7.4008,-7.4034,-7.4043,-7.4064,-7.4066,-7.4058,-7.4089,-7.3956,-7.3989,-7.4031,-7.4046,-7.4077,-7.4111,-7.4119,-7.4092,-7.3981,-7.3964,-7.3997,-7.4033,-7.4064,-7.4048,-7.3518,-7.3953,-7.3949,-7.3946,-7.3943,-7.3942,-7.4381,-7.4446,-7.4405,-7.4438,-7.4418,-7.4414,-7.4466,-7.4406,-7.4438,-7.4451,-7.4376,-7.4435,-7.4405,-7.4403,-7.4388,-7.4434,-7.4356,-7.4405,-7.4417,-7.4431,-7.4453,-7.4058,-7.4435,-7.4434,-7.4433,-7.4432,-7.4431,0,-7.4791,-7.4755,-7.4787,-7.4778,-7.4805,-7.4694,-7.4679,-7.471,-7.4762,-7.4741,-7.4762,-7.4811,-7.4843,-7.4776,-7.4798,-7.4848,-7.4797,-7.4858,-7.4852,-7.4848,-7.4522,-7.449,-7.4898,-7.4898,-7.4898,-7.4898,-7.4898,-7.4898,-7.5007,-7.511,-7.5052,-7.5145,-7.5109,-7.5162,-7.5163,-7.5159,-7.5141,-7.5201,-7.5225,-7.518,-7.5142,-7.5159,-7.5185,-7.5164,-7.5179,-7.5258,-7.522,-7.4917,-7.4871,-7.4827,-7.4797,-7.5262,-7.5263,-7.5541,-7.5544,-7.5546]},{"header":{"parameterUnit":"m.s-1","parameterCategory":1,"la1":30.2991,"la2":30.254,"lo1":-89.0895,"lo2":-89.0444,"dy":0.0017,"dx":0.0017,"nx":28,"ny":28,"refTime":"2024-09-04T03:00:00:Z","depth":0,"parameterNumber":3,"parameterNumberName":"V-component_of_WINDS"},"data":[0,0,0,0,0,0,0,0,0,0,0,0,0,0,0,0,0,0,0,0,0,0,0,0,0,0,0,0,0,0,0,0,0,0,0,0,0,0,0,0,0,0,0,0,0,0,0,0,0,0,0,0,0,0,0,0,0,0,-1.0139,-1.0139,0,-1.0075,-1.0074,-1.0074,-1.0087,-1.0088,-1.0089,-1.009,-1.002,-1.0017,-1.0014,0,0,0,0,0,0,0,0,0,0,0,0,0,-1.0266,-1.0264,-1.0139,-1.0138,-1.0138,-1.0075,-1.0074,-1.0073,-1.0087,-1.0088,-1.009,-1.0091,-1.0021,-1.0017,-1.0014,0,0,0,0,0,0,0,0,0,0,0,0,0,-1.0207,-1.0263,-1.0139,-1.0137,-1.0136,-1.0075,-1.0074,-1.0073,-1.0086,-1.0088,-1.009,-1.0092,-1.0022,-1.0018,-1.0013,-0.995,0,0,-1.0,-0.9998,0,0,0,0,0,0,0,0,-1.0211,-1.0203,-1.0138,-1.0137,-1.0136,-1.0091,-1.0093,-1.0032,-1.0086,-1.0105,-1.009,-1.0093,-1.0042,-1.0036,-1.002,-0.9947,-0.9944,-0.9999,-0.9997,-0.9995,-0.9993,0,0,0,0,0,0,0,-1.0215,-1.0206,-1.0114,-1.0137,-1.0136,-1.0137,-1.013,-1.0082,-1.0064,-1.0104,-1.0104,-1.0097,-1.0042,-1.0024,-1.0018,-0.9943,-0.9999,-0.9995,-0.9993,-0.9991,-0.9809,-0.9807,0,0,0,0,0,0,-1.0221,-1.0209,-1.0116,-1.0112,-1.0179,-1.0133,-1.0126,-1.0103,-1.0065,-1.0061,-1.0095,-1.0098,-1.0031,-1.0023,-1.0016,-0.9936,-0.9995,-0.999,-0.9988,-0.9811,-0.9809,-0.9807,0,0,0,0,0,0,-1.0223,-1.0212,-1.0118,-1.0161,-1.0149,-1.0129,-1.0104,-1.0101,-1.0084,-1.0059,-1.0055,-1.0081,-1.0032,-1.0022,-0.9965,-0.9933,-0.9988,-0.9984,-0.9814,-0.9811,-0.9808,-0.9777,0,0,0,0,0,0,-1.0227,-1.0213,-1.0191,-1.016,-1.0146,-1.0071,-1.0102,-1.0099,-1.0077,-1.0079,-1.0044,-1.004,-1.0033,-0.9972,-0.9961,-0.9928,-0.9981,-0.9817,-0.9812,-0.9809,-0.9781,-0.9773,-0.9767,0,0,0,0,0,-1.0232,-1.0184,-1.019,-1.0178,-1.0118,-1.0069,-1.0061,-1.0055,-1.0074,-1.005,-1.0033,-1.0041,-0.9939,-0.9966,-0.9954,-0.9919,-0.9819,-0.9814,-0.9809,-0.9784,-0.9775,-0.9767,0,0,0,0,0,0,-1.0211,-1.0181,-1.0186,-1.0128,-1.0101,-1.0072,-1.0041,-1.0046,-1.0012,-1.0016,-1.0008,-1.0,-0.9941,-0.9925,-0.9956,-0.9854,-0.9881,-0.9874,-0.9866,-0.9857,-0.985,-0.9854,-0.9977,0,0,0,0,0,-1.02,-1.0165,-1.0139,-1.0091,-1.0077,-1.0061,-1.004,-1.0037,-1.0009,-0.9997,-0.9976,-0.9947,-0.9907,-0.9882,-0.9845,-0.9779,-0.9769,-0.9749,-0.9742,-0.9736,-0.9729,-0.9688,-0.9678,-0.9791,-0.9791,-0.9791,0,0,-1.0176,-1.0155,-1.0133,-1.0086,-1.0065,-1.0026,-1.0052,-1.0011,-0.998,-0.999,-0.9935,-0.9919,-0.9885,-0.9822,-0.9793,-0.9806,-0.9696,-0.973,-0.9726,-0.9721,-0.9682,-0.9672,-0.9662,-0.9787,-0.9788,-0.9789,0,0,-1.0113,-1.0095,-1.005,-1.0029,-0.9997,-0.9986,-0.9975,-0.9945,-0.9934,-0.9879,-0.9884,-0.9848,-0.9782,-0.9756,-0.9735,-0.9658,-0.9663,-0.9647,-0.9609,-0.957,-0.9561,-0.9553,-0.9522,-0.9511,-0.964,-0.964,-0.964,0,-1.0087,-1.003,-1.0027,-0.9984,-0.9961,-0.9969,-0.9922,-0.9901,-0.9857,-0.984,-0.9856,-0.9771,-0.9749,-0.9679,-0.966,-0.9643,-0.9628,-0.965,-0.9563,-0.9555,-0.9547,-0.9517,-0.9506,-0.9638,-0.9638,-0.9638,-0.9638,0,-0.9998,-0.9959,-0.9926,-0.9885,-0.9859,-0.9814,-0.9801,-0.9774,-0.9773,-0.976,-0.9701,-0.9675,-0.9631,-0.9615,-0.9614,-0.9543,-0.9551,-0.9565,-0.9592,-0.9534,-0.9506,-0.9495,-0.9635,-0.9636,-0.9636,-0.9637,0,0,-0.992,-0.9876,-0.9864,-0.9843,-0.9808,-0.9776,-0.973,-0.9688,-0.9663,-0.9633,-0.9592,-0.9535,-0.9546,-0.9521,-0.9517,-0.9483,-0.9419,-0.95,-0.9499,-0.9483,-0.9335,-0.9323,-0.9311,-0.9423,-0.9421,-0.942,-0.9337,0,-0.9851,-0.9772,-0.9765,-0.9693,-0.9654,-0.966,-0.9619,-0.9591,-0.9577,-0.954,-0.9524,-0.9482,-0.9503,-0.9487,-0.9454,-0.9434,-0.9389,-0.9441,-0.9382,-0.9379,-0.9387,-0.9297,-0.9284,-0.9208,-0.9326,-0.9325,-0.9323,0,-0.9759,-0.9726,-0.965,-0.9616,-0.96,-0.9564,-0.9523,-0.9489,-0.9456,-0.9447,-0.9419,-0.9418,-0.9368,-0.9398,-0.9326,-0.9361,-0.9337,-0.9323,-0.932,-0.9312,-0.9346,-0.9283,-0.9184,-0.9171,-0.9307,-0.9308,-0.9309,0,-0.9706,-0.9642,-0.9587,-0.957,-0.9531,-0.9504,-0.9486,-0.9456,-0.9429,-0.9393,-0.9375,-0.9333,-0.9309,-0.9276,-0.9262,-0.9287,-0.9189,-0.922,-0.9178,-0.9178,-0.9156,-0.9157,-0.9048,-0.9145,-0.9145,-0.9145,-0.9145,0,-0.9627,-0.9579,-0.9562,-0.9528,-0.9473,-0.9466,-0.9411,-0.9394,-0.9366,-0.9326,-0.9329,-0.9291,-0.9278,-0.9237,-0.9226,-0.9166,-0.9156,-0.9145,-0.9142,-0.9143,-0.9144,-0.9125,-0.9129,-0.9142,-0.9143,-0.9143,-0.9144,0,-0.9557,-0.9544,-0.9484,-0.9452,-0.9442,-0.9403,-0.9373,-0.9339,-0.9325,-0.9275,-0.9262,-0.924,-0.9191,-0.9175,-0.9117,-0.911,-0.9038,-0.9042,-0.9049,-0.9048,-0.9006,-0.9009,-0.8878,-0.8859,-0.8972,-0.8971,-0.897,0,-0.9507,-0.947,-0.9433,-0.9407,-0.9388,-0.9347,-0.932,-0.9311,-0.9282,-0.924,-0.9209,-0.9162,-0.9123,-0.9045,-0.9022,-0.8976,-0.8976,-0.8934,-0.8969,-0.897,-0.8971,-0.8972,-0.8967,-0.8926,-0.8925,-0.8924,-0.8923,0,-0.9417,-0.9412,-0.9375,-0.9333,-0.9301,-0.9268,-0.9236,-0.9214,-0.9199,-0.9166,-0.9118,-0.9087,-0.9027,-0.8978,-0.8931,-0.891,-0.8912,-0.8913,-0.89,-0.8899,-0.8904,-0.8897,-0.9028,-0.8915,-0.8916,-0.8917,-0.8917,-0.8917,-0.9353,-0.9319,-0.9287,-0.9244,-0.9219,-0.9188,-0.9153,-0.9135,-0.9094,-0.9045,-0.9041,-0.8987,-0.8952,-0.8889,-0.8865,-0.8821,-0.8832,-0.8815,-0.881,-0.8805,-0.88,-0.8913,-0.8812,-0.8813,-0.8813,-0.8813,-0.8813,0,-0.9261,-0.924,-0.9201,-0.9155,-0.912,-0.9128,-0.9092,-0.9061,-0.9014,-0.8982,-0.8943,-0.8885,-0.8837,-0.881,-0.8761,-0.873,-0.873,-0.8717,-0.8718,-0.8712,-0.8794,-0.8808,-0.8718,-0.8718,-0.8718,-0.8718,-0.8718,-0.8718,-0.9209,-0.915,-0.9141,-0.9069,-0.9048,-0.8996,-0.8974,-0.8945,-0.8918,-0.8853,-0.8814,-0.8797,-0.8765,-0.8713,-0.8668,-0.8661,-0.8642,-0.8627,-0.8621,-0.8697,-0.8707,-0.8716,-0.8729,-0.8624,-0.8624,-0.8542,-0.8541,-0.8541]}]]